Westchester County Airport
KHPN : now visible

Airfield :











YOU CAN JOIN US ON...

 
LOGIN :

Register | Disclaimer

   EN    FR    IT 

 









Legend :    VFR   Marginal VFR   IFR   Intensive IFR   Very Intensive IFR
Visi :
Ceiling :
>= 8 km
>= 3000ft
5 to 8 km
1000 to 3000 ft
1500m to 5 km
500 to 1000 ft
800 to 1500m
200 to 500 ft
< 800m
< 200 ft
Symbols :   Thunderstorms  Fog  Heavy snow  Heavy precipitations  Wind > 20 kt






- Airport Elevation : 439 ft
- IATA code : HPN


KHPN - Westchester County

CURRENT METAR :
  • 231456Z 25006KT 10SM BKN090 M04/M13 A2991 RMK AO2 SLP138 T10391133 56013

EXPIRED METARs :
  • 231356Z 28004KT 10SM BKN100 M05/M14 A2991 RMK AO2 SLP141 T10501144
  • 231256Z AUTO 25005KT 10SM CLR M06/M16 A2993 RMK AO2 SLP146 T10561156

TAF KHPN
Valid from the 23 at 15:00 until the 24 at 12:00 UTC


231433Z 2315/2412 28006KT P6SM BKN100 BKN250
FM231900 26009KT P6SM SCT050 BKN090
FM232300 VRB04KT P6SM -SHSN FEW025 BKN035
FM240600 33006KT P6SM BKN035 AMD NOT SKED
KZBW FIR / North America



MET'MAP, your aeronautical weather chart ! - Copyright ORBIFLY December 2007 - Disclaimer

ORBIFLY MET'MAP TEAM :

Programming & Development : Alexandra Zaïnal
Concept & original design : Baudouin d'Aumeries
Assistance for programming : Marc-Olivier Méhu
Technical & hardware support : Manuel Goepfert

Contact : metmap@orbifly.com




SOURCES & CREDITS :

   NOAA       Earth
Advisory